Location: Barrialito
(10.1025°N, 66.8154°W)
Time: 00:38:49
(UTC+00:00)

USA 215 - Pass Details

Date: 06 December 2024
Orbit: 1099 x 1108 km, 123.0° (Epoch: 15 January)

Event Time Altitude Azimuth Distance (km) Brightness Sun altitude
Rises 23:52:28 0° 160° (SSE) 3,917 6.2 -25.5°
Reaches altitude 10° 23:55:07 10° 167° (SSE) 2,958 5.6 -26.1°
Maximum altitude 00:01:07 40° 234° (SW) 1,578 4.5 -27.5°
Drops below altitude 10° 00:07:07 10° 302° (WNW) 2,952 5.9 -28.9°
Sets 00:09:47 0° 309° (NW) 3,908 6.5 -29.5°
